Hilton Head Island, SC

1:23 AM EST on February 26, 2017 (GMT -0500)
Hilton Head

Weather History for KHXD - March, 2014

Change the Weather History Date:

Tuesday, March 4, 2014

  Actual Average Record
Temperature  
Mean Temperature 40 °F -  
Max Temperature 42 °F 67 °F 79 °F (1961)
Min Temperature 37 °F 46 °F 22 °F (1980)
Degree Days  
Heating Degree Days 26    
Moisture  
Dew Point 34 °F    
Average Humidity 82    
Maximum Humidity 100    
Minimum Humidity 66    
Precipitation  
Precipitation 0.00 in - - ()
Sea Level Pressure  
Sea Level Pressure 30.17 in    
Wind  
Wind Speed 12 mph (North)    
Max Wind Speed 15 mph    
Max Gust Speed 20 mph    
Visibility 9 miles    
Events      
Averages and records for this station are not official NWS values.
T = Trace of Precipitation, MM = Missing Value Source: NWS Daily Summary

Daily Weather History Graph

Daily Weather History Graph

Search for Another Location

Airport or City:

Trip Planner

Search our weather history database for the weather conditions in past years. The results will help you decide how hot, cold, wet, or windy it might be!

Date:

Astronomy

Mar. 04, 2014 Rise Set
Actual Time 6:46 AM EST 6:22 PM EST
Civil Twilight 6:22 AM EST 6:47 PM EST
Nautical Twilight 5:53 AM EST 7:15 PM EST
Astronomical Twilight 5:25 AM EST 7:44 PM EST
Moon 8:46 AM EST (3/4) 10:12 PM EST (3/4)
Length of Visible Light 12h 25m
Length of Day
11h 36m
Waxing Crescent, 14% of the Moon is Illuminated
Mar 4
Waxing Crescent
Mar 8
First Quarter
Mar 16
Full
Mar 23
Last Quarter
Mar 30
New

Hourly Weather History & Observations

Time (EST) Temp. Windchill Dew Point Humidity Pressure Visibility Wind Dir Wind Speed Gust Speed Precip Events Conditions
12:15 AM 42.8 °F 35.4 °F 39.2 °F 87% 30.11 in 7.0 mi North 15.0 mph - 0.00 in   Overcast
12:35 AM 41.0 °F 34.3 °F 39.2 °F 93% 30.12 in 8.0 mi North 11.5 mph 18.4 mph 0.00 in   Overcast
12:55 AM 39.2 °F 30.8 °F 39.2 °F 100% 30.13 in 9.0 mi North 15.0 mph - 0.00 in   Overcast
1:15 AM 39.2 °F 31.6 °F 37.4 °F 93% 30.13 in 6.0 mi North 12.7 mph - 0.00 in   Overcast
1:35 AM 39.2 °F 32.0 °F 37.4 °F 93% 30.14 in 5.0 mi North 11.5 mph - 0.00 in   Overcast
1:55 AM 39.2 °F 31.6 °F 37.4 °F 93% 30.14 in 5.0 mi North 12.7 mph 17.3 mph 0.00 in   Overcast
2:15 AM 39.2 °F 32.5 °F 37.4 °F 93% 30.14 in 10.0 mi North 10.4 mph 18.4 mph 0.00 in   Overcast
2:35 AM 39.2 °F 31.6 °F 37.4 °F 93% 30.14 in 10.0 mi North 12.7 mph 18.4 mph 0.00 in   Overcast
2:55 AM 39.2 °F 33.0 °F 37.4 °F 93% 30.14 in 10.0 mi North 9.2 mph 18.4 mph 0.00 in   Overcast
3:15 AM 39.2 °F 31.6 °F 35.6 °F 87% 30.14 in 10.0 mi North 12.7 mph 19.6 mph 0.00 in   Overcast
3:35 AM 39.2 °F 31.2 °F 37.4 °F 93% 30.14 in 10.0 mi North 13.8 mph - 0.00 in   Overcast
3:55 AM 39.2 °F 32.0 °F 35.6 °F 87% 30.14 in 10.0 mi North 11.5 mph 18.4 mph 0.00 in   Overcast
4:15 AM 39.2 °F 32.0 °F 35.6 °F 87% 30.15 in 9.0 mi North 11.5 mph 19.6 mph 0.00 in   Overcast
4:35 AM 39.2 °F 33.0 °F 35.6 °F 87% 30.15 in 10.0 mi North 9.2 mph 18.4 mph 0.00 in   Overcast
4:55 AM 39.2 °F 33.0 °F 35.6 °F 87% 30.16 in 10.0 mi North 9.2 mph - 0.00 in   Overcast
5:15 AM 37.4 °F 29.8 °F 35.6 °F 93% 30.17 in 10.0 mi North 11.5 mph - 0.00 in   Overcast
5:35 AM 39.2 °F 31.6 °F 35.6 °F 87% 30.18 in 10.0 mi North 12.7 mph 18.4 mph 0.00 in   Overcast
6:50 AM 37.4 °F 29.3 °F 33.8 °F 87% 30.19 in 10.0 mi North 12.7 mph 18.4 mph N/A   Overcast
7:50 AM 37.4 °F 29.8 °F 33.8 °F 87% 30.20 in 10.0 mi NNE 11.5 mph 16.1 mph N/A   Overcast
8:50 AM 37.4 °F 29.8 °F 33.8 °F 87% 30.22 in 9.0 mi North 11.5 mph 18.4 mph N/A   Overcast
9:50 AM 37.4 °F 29.8 °F 33.8 °F 87% 30.23 in 9.0 mi North 11.5 mph - N/A   Overcast
10:50 AM 37.4 °F 30.3 °F 33.8 °F 87% 30.23 in 9.0 mi North 10.4 mph 18.4 mph N/A   Overcast
11:50 AM 37.4 °F 30.3 °F 32.0 °F 81% 30.22 in 10.0 mi North 10.4 mph 16.1 mph N/A   Overcast
12:50 PM 39.2 °F 31.6 °F 32.0 °F 75% 30.20 in 10.0 mi North 12.7 mph 17.3 mph N/A   Overcast
1:50 PM 42.8 °F 36.2 °F 32.0 °F 66% 30.17 in 10.0 mi North 12.7 mph - N/A   Overcast
2:47 PM 42.8 °F 36.6 °F 32.0 °F 66% 30.17 in 10.0 mi North 11.5 mph 18.4 mph N/A   Overcast
4:50 PM 41.0 °F 34.3 °F 32.0 °F 70% 30.17 in 10.0 mi North 11.5 mph 17.3 mph N/A   Overcast
5:50 PM 41.0 °F 35.2 °F 32.0 °F 70% 30.19 in 10.0 mi NNW 9.2 mph - N/A   Overcast
6:50 PM 39.2 °F 33.6 °F 32.0 °F 75% 30.19 in 10.0 mi NNW 8.1 mph - N/A   Overcast
7:50 PM 39.2 °F 33.6 °F 32.0 °F 75% 30.20 in 10.0 mi North 8.1 mph - N/A   Overcast
8:15 PM 39.2 °F 33.6 °F 32.0 °F 75% 30.19 in 10.0 mi North 8.1 mph 16.1 mph 0.00 in   Overcast
8:35 PM 39.2 °F 33.0 °F 32.0 °F 75% 30.19 in 10.0 mi North 9.2 mph - 0.00 in   Overcast
8:55 PM 39.2 °F 33.0 °F 32.0 °F 75% 30.20 in 10.0 mi North 9.2 mph - 0.00 in   Overcast
9:15 PM 39.2 °F 33.0 °F 32.0 °F 75% 30.20 in 10.0 mi North 9.2 mph - 0.00 in   Overcast
9:35 PM 39.2 °F 33.0 °F 32.0 °F 75% 30.19 in 10.0 mi North 9.2 mph 17.3 mph 0.00 in   Overcast
9:55 PM 39.2 °F 33.0 °F 30.2 °F 70% 30.18 in 10.0 mi North 9.2 mph - 0.00 in   Overcast
10:15 PM 39.2 °F 33.6 °F 32.0 °F 75% 30.18 in 10.0 mi North 8.1 mph - 0.00 in   Overcast
10:35 PM 39.2 °F 32.0 °F 32.0 °F 75% 30.20 in 10.0 mi North 11.5 mph 16.1 mph 0.00 in   Overcast
10:55 PM 39.2 °F 32.0 °F 30.2 °F 70% 30.19 in 10.0 mi North 11.5 mph - 0.00 in   Overcast
11:15 PM 39.2 °F 32.5 °F 30.2 °F 70% 30.15 in 10.0 mi North 10.4 mph 16.1 mph 0.00 in   Overcast
11:35 PM 39.2 °F 33.6 °F 32.0 °F 75% 30.17 in 10.0 mi North 8.1 mph - 0.00 in   Overcast
11:55 PM 39.2 °F 33.0 °F 32.0 °F 75% 30.13 in 10.0 mi North 9.2 mph 16.1 mph 0.00 in   Overcast